| time (UTC) | temp F | wind direction | speed knots | gust knots | rain 1hr in | rain 24hr in | rain mn in | humidity % | barometer mb |
| 20260901094129 | 75 | 169 | 0.9 | 1.7 | 0.00 | 0.41 | 0.00 | 58 | 1012.9 |
| 20260901091128 | 74 | 175 | 0.9 | 0.9 | 0.00 | 0.41 | 0.00 | 59 | 1013.0 |
| 20260901084127 | 73 | 183 | 0.0 | 0.0 | 0.00 | 0.41 | 0.00 | 58 | 1013.0 |
| 20260901081126 | 73 | 186 | 0.0 | 0.0 | 0.00 | 0.41 | 0.00 | 57 | 1013.1 |
| 20260901074125 | 73 | 323 | 0.0 | 0.0 | 0.00 | 0.41 | 0.00 | 56 | 1012.8 |
| 20260901071124 | 74 | 66 | 0.0 | 0.0 | 0.00 | 0.41 | 0.00 | 55 | 1012.7 |
| 20260901064123 | 74 | 206 | 0.0 | 0.0 | 0.00 | 0.41 | 0.00 | 53 | 1012.6 |
| 20260901061122 | 74 | 360 | 0.0 | 0.0 | 0.00 | 0.41 | 0.00 | 51 | 1012.5 |
| 20260901054121 | 76 | 147 | 0.0 | 0.0 | 0.00 | 0.41 | 0.00 | 48 | 1012.0 |
| 20260901051120 | 76 | 360 | 0.0 | 0.0 | 0.00 | 0.41 | 0.00 | 47 | 1011.9 |
| 20260901044119 | 77 | 97 | 0.0 | 0.0 | 0.00 | 0.41 | 0.41 | 44 | 1011.8 |
| 20260901041118 | 78 | 360 | 0.0 | 0.0 | 0.00 | 0.41 | 0.41 | 43 | 1011.5 |
| 20260901034117 | 80 | 240 | 0.0 | 0.0 | 0.00 | 0.41 | 0.41 | 40 | 1010.6 |
| 20260901031116 | 79 | 139 | 0.0 | 0.0 | 0.00 | 0.41 | 0.41 | 40 | 1010.0 |
| 20260901024115 | 82 | 180 | 0.0 | 0.0 | 0.00 | 0.41 | 0.41 | 36 | 1009.0 |
| 20260901021114 | 84 | 103 | 0.0 | 0.0 | 0.00 | 0.41 | 0.41 | 35 | 1008.2 |
| 20260901014114 | 87 | 193 | 0.0 | 0.0 | 0.00 | 0.41 | 0.41 | 30 | 1007.2 |
| 20260901011112 | 90 | 178 | 0.9 | 0.9 | 0.01 | 0.41 | 0.41 | 28 | 1006.6 |
| 20260901004111 | 93 | 173 | 1.7 | 1.7 | 0.03 | 0.41 | 0.41 | 26 | 1005.9 |
| 20260901001110 | 95 | 175 | 2.6 | 2.6 | 0.05 | 0.40 | 0.39 | 25 | 1005.6 |
| 20260831234109 | 95 | 175 | 2.6 | 2.6 | 0.04 | 0.38 | 0.37 | 24 | 1005.4 |
| 20260831231108 | 96 | 179 | 1.7 | 2.6 | 0.03 | 0.36 | 0.34 | 25 | 1005.7 |
| 20260831224107 | 96 | 167 | 1.7 | 2.6 | 0.04 | 0.37 | 0.32 | 24 | 1006.0 |
| 20260831221106 | 96 | 168 | 1.7 | 7.0 | 0.02 | 0.35 | 0.29 | 26 | 1006.1 |
| 20260831214107 | 96 | 105 | 0.9 | 2.6 | 0.02 | 0.34 | 0.27 | 26 | 1006.4 |
| 20260831211104 | 95 | 181 | 2.6 | 8.7 | 0.03 | 0.34 | 0.26 | 27 | 1007.1 |
| 20260831204104 | 95 | 193 | 3.5 | 9.6 | 0.02 | 0.34 | 0.24 | 26 | 1007.5 |
| 20260831201102 | 94 | 170 | 2.6 | 7.0 | 0.04 | 0.35 | 0.22 | 28 | 1008.1 |
| 20260831194102 | 94 | 181 | 1.7 | 7.0 | 0.04 | 0.35 | 0.21 | 28 | 1008.5 |
| 20260831191101 | 94 | 164 | 0.9 | 7.8 | 0.03 | 0.36 | 0.18 | 29 | 1008.7 |
| 20260831184100 | 94 | 104 | 0.9 | 3.5 | 0.03 | 0.37 | 0.16 | 28 | 1008.9 |
| 20260831181058 | 92 | 170 | 2.6 | 7.8 | 0.03 | 0.37 | 0.14 | 33 | 1009.8 |
| 20260831174057 | 91 | 175 | 6.1 | 6.1 | 0.06 | 0.38 | 0.13 | 34 | 1010.2 |
| 20260831171056 | 89 | 180 | 2.6 | 8.7 | 0.06 | 0.36 | 0.10 | 39 | 1010.6 |
| 20260831164055 | 87 | 182 | 1.7 | 6.1 | 0.05 | 0.36 | 0.06 | 47 | 1011.1 |
| 20260831161054 | 85 | 183 | 3.5 | 8.7 | 0.02 | 0.34 | 0.02 | 50 | 1011.4 |
| 20260831154053 | 83 | 190 | 2.6 | 5.2 | 0.01 | 0.33 | 0.01 | 54 | 1011.7 |
| 20260831151052 | 80 | 188 | 3.5 | 9.6 | 0.00 | 0.32 | 0.00 | 59 | 1012.5 |
| 20260831144051 | 77 | 193 | 2.6 | 7.0 | 0.00 | 0.33 | 0.00 | 62 | 1012.8 |
| 20260831141050 | 75 | 181 | 2.6 | 6.1 | 0.00 | 0.33 | 0.00 | 63 | 1013.3 |
| 20260831134049 | 72 | 186 | 0.0 | 1.7 | 0.00 | 0.33 | 0.00 | 67 | 1013.5 |
| 20260831131048 | 69 | 216 | 0.0 | 1.7 | 0.00 | 0.33 | 0.00 | 68 | 1013.7 |
| 20260831124048 | 68 | 206 | 0.0 | 0.0 | 0.00 | 0.33 | 0.00 | 70 | 1013.6 |
| 20260831115332 | 69 | 206 | 0.9 | 1.7 | 0.00 | 0.33 | 0.00 | 66 | 1012.9 |
| 20260831112331 | 70 | 193 | 1.7 | 1.7 | 0.00 | 0.33 | 0.00 | 63 | 1012.7 |
| 20260831105330 | 69 | 212 | 0.0 | 0.0 | 0.00 | 0.33 | 0.00 | 67 | 1013.0 |
| 20260831102329 | 71 | 205 | 0.9 | 0.9 | 0.00 | 0.33 | 0.00 | 62 | 1012.5 |